Wind_Speed
11 11 11 11 11 13 14 15 15 15 15 15 14 14 14 14 14 14 14 14 14 14 15 15 15 14 15 16 16 16 17 17 17 18 18 17 17 16 16 16 15 15 16 16 16 16 16 16 17 16 16 16 16 16 16 16 15 15 15 14 14 13 13 14 14 14 15 15 16 16 17 17 17 17 16 16 16 16 16 16 15 16 16 16 16
11 12 12 12 12 13 14 15 15 15 15 15 15 15 14 14 14 14 14 14 14 15 15 16 16 15 16 16 17 17 17 17 17 17 16 16 15 15 14 14 14 14 15 15 16 16 16 16 16 16 16 16 16 16 15 15 15 15 14 14 14 14 15 15 15 15 16 17 17 17 17 17 17 17 17 18 18 18 17 17 17 17 17 18 18
11 12 13 13 13 14 14 15 15 15 15 15 15 15 14 14 14 14 14 15 15 15 15 16 17 16 16 17 17 17 17 17 17 16 15 14 14 13 13 13 14 14 14 15 15 15 15 15 15 15 15 15 15 15 15 15 14 14 14 14 15 16 16 16 16 17 18 18 18 18 18 18 18 18 18 18 18 18 18 18 18 18 18 19 19
12 13 14 15 15 15 15 15 15 15 14 14 14 14 14 14 14 14 14 15 15 15 16 17 17 16 16 16 16 16 16 16 16 15 15 14 13 12 12 12 13 14 14 14 14 15 15 15 15 15 15 15 14 14 15 14 14 15 15 16 16 17 17 17 18 18 19 19 19 19 19 19 19 18 18 18 18 18 18 19 19 20 20 20 21
14 14 15 16 16 16 16 15 15 14 14 13 13 14 14 15 15 15 15 15 15 16 16 16 16 15 15 15 15 15 15 15 15 14 14 13 13 12 12 12 13 13 14 14 14 14 14 14 14 14 14 14 14 14 14 14 15 16 17 17 17 18 18 18 19 19 20 21 21 20 20 19 19 19 19 19 19 19 20 21 21 21 22 22 23
15 15 16 16 17 17 16 15 14 14 14 13 13 14 15 15 15 16 15 15 15 15 15 15 14 14 14 14 14 14 14 14 14 13 13 12 12 12 12 12 13 13 13 14 14 14 14 14 14 14 14 14 14 14 14 15 16 17 17 18 18 18 19 19 19 20 21 21 21 21 20 20 20 20 20 20 20 21 22 22 23 23 24 24 25
16 16 16 16 17 16 16 15 14 13 13 13 13 14 15 15 15 15 15 15 14 15 15 15 15 15 15 15 14 14 13 13 13 13 12 12 12 12 12 12 13 13 13 13 14 14 14 14 14 14 14 14 14 14 14 16 17 17 18 18 19 19 19 19 20 21 21 21 21 21 21 21 21 21 21 21 22 23 24 24 25 26 26 26 26
16 16 16 16 15 15 15 14 13 12 12 13 13 14 15 15 15 15 15 15 15 15 15 15 15 15 15 15 15 14 14 14 13 12 12 11 12 12 12 13 13 13 13 13 14 14 14 14 14 14 14 14 14 14 15 16 17 18 18 19 19 19 19 20 21 21 22 22 22 22 22 22 22 22 22 23 24 25 26 26 27 27 27 27 27
16 15 15 15 14 14 14 13 12 12 12 13 13 14 14 14 15 15 15 15 15 15 15 15 16 15 15 15 15 15 14 15 14 14 13 13 12 12 12 13 13 13 13 13 13 13 14 14 14 14 14 13 13 14 16 17 18 18 18 18 18 19 19 20 21 22 22 22 22 22 23 23 23 24 25 26 26 27 27 28 27 27 27 26 26
14 14 14 15 14 14 13 13 12 12 12 13 13 13 14 14 14 15 15 15 15 15 15 15 15 15 15 15 15 15 16 16 16 15 14 14 13 12 12 12 12 13 13 13 13 14 14 14 14 14 13 13 13 15 16 17 18 18 18 18 18 19 20 20 21 22 22 22 23 23 24 24 25 26 27 27 28 28 28 28 27 27 27 27 26
13 13 14 14 14 14 14 13 13 12 12 13 13 13 14 14 14 14 15 15 15 14 15 15 15 16 16 16 16 16 16 16 16 15 15 13 12 12 11 12 12 13 13 14 14 14 14 14 13 13 13 13 14 15 16 17 18 18 18 18 18 19 20 21 21 22 22 23 24 24 25 26 26 27 28 28 28 28 28 28 28 28 29 28 28
12 12 13 13 14 14 14 14 13 13 13 13 14 14 14 14 15 15 15 15 15 16 16 16 17 17 17 17 16 16 16 16 15 15 14 13 12 12 12 12 13 14 14 14 14 14 14 13 12 12 13 13 14 15 16 17 17 17 17 17 18 19 19 20 21 22 22 23 24 25 26 27 27 28 28 28 28 28 28 29 30 31 31 30 30
12 12 13 13 14 14 14 14 14 13 14 14 15 15 15 15 16 16 16 16 16 16 16 17 17 17 17 17 16 16 15 14 14 14 14 13 13 13 13 14 14 14 14 14 14 13 13 12 12 12 13 14 15 15 16 16 17 17 17 17 18 18 19 20 21 22 22 24 25 26 27 27 27 28 28 28 28 29 29 30 31 32 32 32 31
13 13 13 13 13 14 14 14 14 14 15 15 15 16 16 16 16 16 16 16 15 15 15 15 16 15 15 15 15 14 13 13 12 12 13 13 14 14 15 15 14 14 13 13 13 12 11 11 12 13 14 14 15 15 16 16 16 16 16 17 17 18 18 20 21 22 23 24 25 26 27 27 27 28 28 28 28 29 29 30 31 31 32 31 31
14 13 13 13 13 13 14 15 15 15 15 16 16 16 16 16 15 15 15 15 15 14 14 14 15 15 14 13 13 13 12 12 11 11 11 13 15 16 17 16 15 14 13 12 11 11 11 11 12 13 14 14 15 15 16 16 16 16 16 16 16 17 18 19 21 22 23 24 25 26 27 27 27 27 28 28 28 28 29 30 30 31 31 31 32
14 14 13 13 12 12 13 13 14 14 15 16 16 15 15 15 15 14 14 14 14 13 13 12 13 13 13 13 12 12 11 11 10 10 10 13 15 17 17 17 16 14 13 11 10 10 10 11 12 13 14 14 15 15 16 16 16 15 15 15 16 17 18 19 21 22 22 24 25 26 26 26 26 27 28 28 28 28 29 30 30 31 31 32 33
14 14 14 13 12 11 11 12 12 13 14 15 16 15 14 14 14 14 13 13 12 12 11 11 11 11 11 11 11 11 10 10 10 9 9 12 14 16 17 16 15 14 12 11 10 10 10 11 12 13 14 14 15 15 16 16 15 14 14 14 16 17 18 19 20 21 22 24 25 25 25 26 26 27 28 27 27 28 29 30 30 31 31 32 33
14 13 13 13 12 12 11 11 11 11 13 14 15 15 14 14 13 13 13 12 11 11 11 10 9 9 8 9 9 9 9 9 9 9 9 10 13 15 15 15 14 12 11 10 9 10 10 11 12 13 13 14 14 15 15 15 14 13 13 14 16 17 18 18 19 20 22 24 25 25 25 26 26 27 27 26 27 28 29 30 30 31 32 33 34
13 13 12 12 12 12 11 11 11 11 11 12 13 14 14 13 13 12 12 11 11 10 10 9 8 7 7 7 7 8 7 7 7 8 9 10 12 14 14 14 12 11 10 9 9 10 10 11 11 12 13 13 14 14 14 13 13 12 13 14 16 17 17 18 19 21 23 24 24 25 25 26 26 26 26 26 27 28 29 30 31 31 32 33 34
12 12 12 12 12 12 12 11 11 11 11 11 12 13 13 14 13 13 12 12 11 10 9 8 7 6 5 5 5 6 6 6 6 7 7 9 11 13 14 13 12 11 10 9 10 10 10 10 11 11 12 13 13 13 13 13 13 13 13 14 15 16 17 17 19 21 22 23 24 24 25 25 26 26 26 26 27 28 29 30 31 32 32 33 34
12 12 12 12 12 12 12 11 11 11 11 11 11 12 13 13 13 13 13 12 11 10 9 8 7 6 5 4 4 4 4 4 5 6 6 7 11 13 13 13 11 10 10 9 10 10 10 10 10 11 12 12 12 12 12 12 13 13 13 13 15 16 16 17 19 21 22 22 23 24 24 24 25 26 26 26 28 28 29 30 30 31 32 33 34
12 12 12 12 12 12 12 12 11 11 11 11 11 11 11 12 12 12 12 12 12 11 10 9 8 7 6 5 5 4 4 4 4 5 6 7 10 12 13 12 11 9 9 9 9 10 10 9 9 9 11 11 11 11 11 11 13 13 12 12 14 15 16 17 19 20 21 22 22 23 23 24 25 26 26 27 28 28 29 29 30 30 31 32 32
12 12 12 12 12 12 12 12 11 11 11 11 11 11 11 11 11 11 12 11 11 11 10 10 9 9 8 7 6 5 5 5 4 5 6 7 9 12 12 12 11 9 8 8 9 10 9 8 7 8 9 9 10 10 9 10 11 11 11 12 14 15 16 17 18 20 20 21 21 21 22 23 24 26 26 27 28 28 29 29 29 30 30 31 32
12 12 11 12 12 12 11 11 12 11 11 11 11 11 11 11 11 11 10 10 11 11 11 11 10 10 9 8 7 7 6 5 5 5 6 7 9 11 12 11 10 9 8 8 9 10 9 8 7 8 8 8 9 9 9 9 9 10 10 11 13 15 16 17 18 18 19 19 19 19 21 23 24 25 25 26 28 28 28 28 29 29 30 30 31
11 11 11 11 11 11 11 11 12 12 12 11 11 11 10 10 10 10 10 10 10 10 11 11 10 9 9 8 7 7 6 6 6 6 6 8 10 11 12 11 10 9 8 9 9 10 9 7 7 7 7 7 7 8 8 8 8 9 9 11 13 14 15 16 16 17 17 17 17 18 20 22 23 23 24 25 26 27 28 28 28 29 29 30 31
10 10 11 11 11 11 11 11 11 12 12 11 11 11 10 10 10 10 10 9 9 9 9 9 9 8 8 8 7 6 6 6 6 6 7 8 11 12 12 12 10 9 8 8 9 9 9 7 6 5 5 5 6 7 8 7 7 8 8 10 12 14 14 14 15 16 16 15 15 16 18 20 21 22 23 24 25 26 27 27 28 28 29 30 30
11 11 11 12 12 11 11 11 11 12 12 12 12 11 11 10 9 9 9 9 9 9 8 8 8 8 8 8 7 7 6 7 7 7 8 9 11 12 13 12 11 9 8 8 9 10 9 7 5 4 3 4 5 7 7 6 6 7 7 9 11 12 13 13 14 15 15 14 14 15 17 18 20 21 22 24 25 26 26 27 27 28 28 29 30
12 12 12 12 12 12 12 12 12 12 12 12 12 12 11 10 10 9 9 9 8 8 8 8 7 7 7 8 8 8 8 8 8 7 8 10 12 13 13 12 11 10 9 9 9 10 9 7 5 3 2 3 5 6 7 6 5 6 6 7 10 11 12 12 12 13 14 14 14 15 16 17 19 21 22 24 25 26 26 27 27 27 28 28 29
12 12 12 12 13 13 13 13 13 13 13 13 12 12 11 10 10 10 9 8 8 8 8 7 7 7 7 8 8 8 9 9 8 9 9 11 12 12 13 12 12 11 10 9 10 10 8 7 5 3 1 2 4 5 6 5 5 5 4 5 7 9 10 10 10 12 12 13 14 15 16 17 18 20 22 24 25 26 27 27 28 28 29 29 29
12 12 12 12 13 13 14 14 14 14 13 13 12 12 11 11 10 10 10 9 8 7 7 7 7 7 7 7 7 7 8 9 9 9 10 11 11 12 12 12 12 12 11 10 10 10 9 7 6 4 1 1 3 4 4 3 3 3 3 2 5 7 8 8 8 10 11 12 14 15 16 17 18 19 22 24 26 27 27 28 29 29 30 31 30
11 12 12 12 12 13 14 15 15 14 14 13 12 11 11 11 11 10 10 9 8 7 7 7 7 7 8 7 7 6 7 8 9 9 10 11 10 10 11 11 11 11 11 11 10 10 9 8 7 5 2 1 1 1 1 1 2 4 5 4 4 5 6 6 7 9 10 12 14 15 16 17 17 19 22 24 25 26 27 28 29 30 31 32 32
12 12 12 12 12 13 14 15 15 15 14 13 12 12 11 11 10 11 11 11 9 8 7 7 7 7 8 8 7 7 7 8 8 8 9 10 9 8 8 9 10 10 10 10 10 10 9 9 8 6 4 2 2 2 3 3 4 6 7 8 8 6 5 5 6 8 10 12 14 15 16 16 17 18 21 23 24 25 26 27 28 30 31 32 32
12 12 12 11 11 12 13 14 15 14 14 13 12 12 11 10 10 11 11 12 11 9 8 7 7 7 7 7 7 8 8 8 7 7 7 8 7 6 6 7 8 8 9 10 10 10 10 9 9 8 6 5 4 4 5 6 6 7 7 9 9 8 6 5 6 8 10 12 13 15 15 15 16 18 20 21 23 24 26 27 28 29 31 32 32
14 14 13 12 11 12 12 13 14 14 14 14 13 13 11 10 10 10 10 11 11 10 9 8 7 6 7 7 7 7 8 8 7 7 6 6 6 5 5 6 7 7 8 9 9 10 10 9 9 9 8 7 7 7 7 7 7 7 7 7 6 6 5 5 6 7 9 10 12 14 15 15 16 17 19 20 21 23 25 27 28 29 30 31 31
16 15 14 13 12 12 12 13 14 14 15 15 14 13 12 11 10 9 9 10 10 10 10 9 8 7 7 7 7 7 7 8 8 7 6 5 4 4 4 4 5 6 7 7 8 9 10 10 9 9 9 9 9 10 10 10 10 9 9 7 5 5 6 7 7 7 9 10 12 14 15 16 16 17 18 19 21 23 25 27 28 29 29 30 30
18 17 16 15 14 14 14 14 14 15 16 16 15 14 12 11 10 9 9 9 9 10 10 9 9 8 7 7 7 7 7 7 8 8 7 6 4 4 4 3 3 4 5 6 7 8 9 9 9 9 10 10 11 11 12 12 12 12 12 10 8 7 7 8 8 8 9 11 13 14 15 16 16 17 17 19 20 23 25 26 27 28 29 30 30
20 19 18 17 16 16 16 16 16 17 17 17 16 14 13 12 10 10 9 9 9 8 8 8 8 8 7 7 7 7 7 7 7 7 7 7 6 6 6 5 4 3 4 5 6 7 8 8 9 9 10 10 11 12 12 13 13 13 12 12 11 9 8 8 9 9 10 11 12 14 15 15 16 17 17 19 20 22 24 25 26 27 29 30 30
22 21 19 19 18 18 18 18 18 19 18 18 17 15 14 12 11 10 10 9 9 8 8 8 7 7 7 7 7 7 7 6 6 6 6 7 7 8 8 8 7 6 6 6 6 6 7 8 8 8 9 10 11 12 12 13 14 13 13 13 12 11 11 11 11 10 11 12 13 14 15 16 17 17 18 19 20 21 23 24 26 27 29 30 31
23 22 21 20 20 20 20 20 20 20 20 19 17 16 14 13 12 12 11 11 10 9 9 8 7 7 7 6 6 6 6 6 6 6 6 6 7 8 8 9 9 9 9 9 9 9 9 9 9 10 10 11 13 13 13 14 15 15 15 15 15 14 13 13 13 13 13 13 14 15 17 18 18 19 19 19 20 21 22 24 26 27 29 30 31
24 23 22 22 22 22 22 21 22 21 21 20 18 17 16 15 14 14 13 12 12 11 10 9 8 8 7 7 7 6 6 6 6 6 6 7 8 8 9 9 10 10 10 10 11 11 12 12 12 13 13 13 14 15 14 15 16 17 17 17 18 17 17 16 16 16 15 15 15 16 17 18 19 20 20 20 20 21 23 25 26 28 29 30 31
25 24 24 24 24 24 23 23 23 23 22 21 20 19 18 17 17 16 15 14 13 12 11 11 10 10 9 9 8 8 7 6 6 6 7 7 8 9 10 10 10 10 10 11 11 12 13 14 14 15 15 15 16 17 17 17 18 18 19 19 20 20 20 19 19 18 18 18 18 18 19 20 20 21 21 21 21 22 24 26 27 28 29 30 32
27 26 25 25 25 25 25 25 25 24 23 23 23 22 21 20 20 19 17 16 15 14 13 13 12 12 11 11 10 10 9 8 8 8 8 8 9 10 10 10 10 10 10 11 11 12 13 14 15 16 16 17 17 18 18 19 19 20 21 21 22 22 22 22 21 20 20 20 21 21 22 22 22 22 23 22 22 23 24 25 26 27 29 30 32
28 27 26 26 26 26 26 26 26 25 25 25 26 25 24 23 22 21 20 19 18 17 16 15 14 14 13 13 12 12 12 12 11 11 10 11 11 12 12 11 10 10 10 11 11 12 13 13 14 15 15 17 18 17 17 18 18 19 21 22 22 23 23 23 23 21 20 21 21 22 23 24 23 23 23 23 23 23 24 25 25 26 28 30 32
30 29 28 27 27 27 27 26 26 26 27 28 28 28 27 26 25 24 23 22 20 19 18 17 17 16 15 15 14 14 14 15 15 14 14 14 14 15 14 13 12 11 11 12 12 13 13 13 13 14 15 16 17 17 16 16 16 17 19 20 20 21 22 23 23 22 20 19 19 20 21 23 23 24 24 23 23 23 24 24 25 26 28 30 31
33 31 29 28 28 27 27 26 26 26 28 29 30 30 30 29 28 27 26 24 23 22 20 20 19 18 17 16 16 16 17 17 17 18 18 17 17 17 17 16 15 14 14 14 14 15 15 15 14 15 16 16 17 18 17 15 15 16 17 18 19 19 21 21 21 21 20 18 18 17 18 20 22 22 23 23 22 22 23 24 24 25 27 29 30
34 32 30 29 28 28 27 26 26 26 28 30 31 31 32 32 31 30 29 27 26 24 23 22 22 21 20 19 18 18 19 19 19 20 20 21 20 20 19 18 18 17 17 17 17 17 18 17 16 17 18 18 17 18 18 17 16 17 18 18 18 19 20 20 20 20 19 18 17 16 16 17 19 21 21 21 21 21 22 23 24 25 26 28 30
35 33 32 30 29 28 28 27 27 26 27 30 31 32 33 33 33 33 32 31 29 28 27 26 25 24 23 22 21 21 21 21 22 22 22 23 23 22 22 21 21 20 20 20 20 21 20 20 19 19 20 21 19 19 19 19 19 18 19 18 19 20 20 20 20 19 18 17 16 15 15 16 18 19 20 20 21 21 22 23 23 25 27 28 30
37 35 34 32 31 30 29 29 28 27 28 30 31 32 33 34 34 34 33 33 33 31 31 30 29 28 27 26 24 24 23 23 25 26 25 25 25 24 24 24 24 23 22 23 23 23 23 22 22 21 22 23 23 22 22 22 22 21 21 20 21 22 21 20 20 19 18 17 17 16 16 16 18 18 19 20 21 21 22 22 24 25 27 29 30
38 37 37 35 34 33 32 31 29 29 30 32 32 33 33 34 33 33 33 34 34 34 34 34 33 32 31 29 28 27 26 26 27 29 29 28 27 26 26 26 26 25 25 26 26 25 25 25 24 24 24 25 25 25 25 25 25 24 23 22 23 23 21 20 19 19 18 18 18 18 17 17 18 18 18 19 21 21 22 23 24 26 27 29 30
38 38 38 37 36 35 33 32 31 31 32 34 34 34 34 34 33 32 32 33 33 34 35 35 35 34 33 32 32 30 29 29 30 31 32 32 30 29 29 29 28 27 27 29 29 27 26 26 25 26 26 27 28 28 28 28 27 27 25 24 24 23 22 20 19 19 19 19 20 20 18 18 18 19 19 20 20 21 23 23 24 26 27 29 29
38 38 38 37 37 36 34 33 32 32 33 35 36 36 36 36 34 33 32 32 31 32 34 34 34 35 34 34 34 33 32 32 33 33 34 34 33 32 32 32 30 29 30 31 31 29 27 27 27 27 28 29 30 30 30 30 29 28 27 26 25 23 22 20 20 20 19 20 21 21 19 19 20 20 20 20 20 21 23 24 25 26 27 28 27
Wind_Direction
98 102 106 107 103 100 101 102 102 101 100 98 97 98 102 105 106 109 111 112 114 117 119 119 119 118 115 113 113 115 116 115 116 117 120 122 123 123 123 124 124 123 121 121 121 120 119 116 114 111 108 105 103 102 101 99 98 97 96 95 91 86 80 75 72 71 70 68 66 63 60 57 53 49 47 44 42 39 37 36 34 33 31 30 29
101 105 110 111 108 105 104 104 104 103 102 100 99 98 99 100 102 105 109 112 115 117 119 118 118 117 116 115 116 117 117 117 118 120 122 123 123 123 124 125 125 124 124 123 122 120 118 116 114 110 106 104 103 102 100 99 99 98 95 91 84 79 76 73 72 71 69 66 63 60 57 54 51 50 49 47 45 44 42 40 39 37 34 31 28
107 110 114 116 114 110 108 106 104 103 102 100 98 97 98 99 101 104 108 113 115 117 117 117 117 118 118 118 118 119 119 120 121 121 121 120 120 122 124 125 126 126 126 124 122 120 118 115 111 108 106 105 104 103 101 101 99 96 90 84 79 77 76 74 72 69 67 64 61 59 57 56 55 54 51 49 47 44 42 40 38 36 33 29 25
113 115 116 118 117 114 110 108 106 103 101 98 96 96 98 100 101 104 107 111 113 115 116 116 118 119 119 119 120 120 120 119 119 118 117 117 118 121 124 127 128 127 125 123 121 120 117 113 109 108 107 106 105 104 104 101 97 91 86 82 81 79 77 74 71 69 67 65 64 62 61 60 58 55 52 49 47 44 42 40 38 35 32 29 25
115 117 118 118 116 114 111 109 107 104 101 97 96 96 97 99 100 102 104 107 111 112 113 115 117 118 116 116 116 117 116 115 114 114 115 116 118 120 123 125 126 124 123 122 121 118 115 112 111 110 109 108 108 107 104 100 94 90 88 85 83 81 77 74 73 71 69 68 66 64 63 61 58 55 53 50 48 45 43 41 38 35 32 29 26
116 117 118 117 116 114 111 109 107 104 101 97 95 94 96 97 99 100 103 106 110 111 112 113 114 112 110 110 110 111 111 111 110 111 112 114 116 118 120 121 121 121 121 121 120 118 116 115 114 113 112 112 111 108 104 99 96 93 90 87 85 81 78 75 73 71 70 68 66 64 62 60 58 55 53 51 48 46 43 40 37 34 31 28 25
117 118 118 118 117 114 111 108 105 103 101 98 96 95 96 98 100 102 104 107 110 112 113 115 114 112 111 110 110 109 107 105 105 105 107 109 111 113 115 117 118 120 120 119 118 118 118 117 115 115 115 114 112 108 104 100 96 93 90 88 85 81 77 74 72 71 69 67 65 63 61 60 58 55 53 50 48 45 41 38 35 32 29 26 24
118 118 118 118 117 115 112 109 107 105 103 101 100 99 99 101 103 105 108 111 113 115 116 117 116 114 114 113 111 109 106 103 102 101 102 104 107 111 113 115 116 118 118 118 119 120 119 118 118 119 118 115 112 108 104 100 95 92 91 88 84 78 75 72 71 69 68 66 65 63 62 59 57 54 52 49 45 42 39 36 33 31 28 25 22
119 120 121 121 120 118 116 113 112 110 107 106 105 105 105 105 106 109 111 113 115 117 118 118 117 116 115 114 112 110 108 106 104 103 102 103 105 109 112 114 115 116 117 120 121 122 121 121 121 120 119 115 111 107 103 98 94 92 90 85 80 75 72 70 69 68 67 66 65 63 60 58 56 53 50 48 44 42 39 36 34 31 28 25 22
119 122 124 125 125 123 122 120 118 117 114 112 112 112 113 112 112 114 115 115 117 119 120 120 120 119 118 116 114 112 110 108 106 105 104 104 106 109 112 114 116 117 120 122 124 124 123 123 122 121 118 113 109 105 99 95 93 91 87 82 76 71 69 68 68 68 67 66 64 62 60 58 55 53 50 48 45 42 40 37 35 32 30 27 23
117 122 126 127 128 127 126 124 123 122 120 118 118 118 119 119 119 120 120 120 122 123 124 124 123 121 119 116 114 112 110 108 107 105 105 106 108 111 114 117 119 121 123 124 125 125 123 122 122 120 115 111 107 102 96 94 92 88 83 77 72 69 67 68 69 69 68 67 64 62 60 58 55 52 50 48 46 43 40 38 35 33 32 29 26
117 121 125 127 127 127 126 126 126 125 124 123 122 122 122 122 122 123 123 124 126 127 127 127 125 122 120 116 113 111 109 108 107 106 106 108 111 114 117 119 121 123 123 123 123 122 122 121 120 115 112 110 105 99 96 94 91 86 80 74 70 68 68 70 71 70 69 67 65 63 60 57 54 51 49 47 45 42 39 37 35 33 32 29 27
118 121 124 125 125 125 126 125 126 126 125 125 125 124 124 124 124 124 124 125 126 127 127 126 124 121 119 117 114 111 108 106 105 105 105 107 111 115 118 120 121 121 121 121 121 121 121 120 116 114 113 109 103 99 97 94 89 83 76 71 69 69 71 72 73 71 70 68 65 63 59 56 53 51 48 46 44 41 39 37 35 34 31 29 26
121 122 123 124 124 125 125 125 125 126 126 126 126 125 125 125 125 125 126 125 126 126 126 124 121 117 115 114 112 110 106 103 102 102 104 107 111 115 118 120 120 119 119 119 120 121 120 118 117 117 114 108 102 100 97 92 86 79 73 70 70 71 73 74 73 72 70 67 65 62 59 55 53 51 49 46 43 41 40 38 37 35 33 30 28
124 124 124 124 124 125 126 126 127 127 128 128 128 127 127 127 127 127 127 127 126 126 124 123 120 118 116 114 111 108 104 101 99 100 103 107 112 117 120 121 121 119 119 120 122 121 118 119 120 117 111 106 103 100 96 89 82 76 72 71 72 74 75 75 74 72 69 67 65 61 58 55 53 51 49 46 44 43 41 39 38 36 34 32 31
128 128 127 127 127 128 129 130 132 132 132 131 131 132 132 132 132 131 130 129 129 127 126 125 123 122 121 118 114 109 105 101 99 101 105 110 115 120 123 124 123 122 123 124 122 118 118 121 120 115 111 108 104 100 93 85 79 75 73 73 75 76 75 74 73 71 69 67 64 60 57 54 52 50 48 46 44 43 42 40 38 36 34 32 31
133 133 133 133 134 136 137 137 138 138 136 136 137 139 139 139 139 138 137 136 135 134 134 132 129 127 124 120 114 109 107 105 103 103 108 116 120 124 126 126 125 124 125 123 118 118 122 123 121 116 113 110 105 97 89 83 78 74 73 74 75 75 75 73 72 71 69 65 62 58 55 53 51 48 47 45 43 43 42 40 38 36 34 32 31
139 138 138 138 140 143 146 147 147 146 144 144 145 146 148 148 148 146 145 145 145 145 143 141 139 136 130 123 116 110 106 104 103 105 112 122 126 128 129 126 123 122 120 116 115 121 127 127 123 119 116 111 103 95 88 83 78 73 72 74 75 74 73 72 72 70 66 63 59 56 54 52 49 48 46 43 42 42 41 39 37 35 33 32 30
147 146 145 145 146 148 152 155 156 157 156 156 156 156 156 156 157 157 155 154 156 156 153 152 152 149 144 134 123 114 106 100 101 105 115 129 135 135 133 129 124 121 117 114 119 128 133 132 128 124 119 113 103 95 89 84 77 71 69 73 75 73 72 72 71 68 64 61 58 56 54 52 49 47 45 42 41 40 39 38 36 34 33 31 30
157 155 154 153 153 154 157 159 163 166 167 167 168 168 166 166 167 167 165 164 165 167 164 162 163 162 160 151 134 122 114 108 105 106 115 134 144 144 141 136 131 128 123 124 131 138 141 139 134 129 122 114 104 96 90 84 76 68 68 74 75 73 72 71 69 65 63 60 58 56 54 52 50 47 44 41 40 39 37 36 34 33 31 30 29
165 164 162 161 160 160 162 164 168 172 173 174 176 177 177 176 177 176 174 173 174 176 174 171 171 174 175 170 153 142 139 133 125 117 116 136 151 153 148 144 139 135 132 135 143 146 148 148 142 133 125 114 104 96 90 86 77 68 69 75 76 74 73 70 67 64 62 60 58 56 54 52 50 47 44 41 39 38 36 34 33 32 30 29 28
174 172 170 168 166 166 167 168 171 175 178 180 181 183 184 184 184 183 182 182 182 184 184 180 179 182 185 181 173 168 168 165 153 137 125 136 156 159 155 149 144 140 139 144 152 155 156 155 145 133 124 114 103 96 92 87 79 71 71 77 78 76 73 69 66 64 62 60 57 55 54 52 49 46 42 40 38 37 36 34 32 30 29 28 27
182 180 177 172 170 169 168 169 171 175 179 184 186 186 187 189 190 188 188 187 188 189 191 189 187 191 192 187 185 186 186 188 178 154 137 139 158 165 161 154 150 148 150 153 161 166 165 159 144 132 125 114 102 95 92 88 81 75 75 82 82 76 72 68 65 62 60 58 56 55 54 52 48 45 42 39 37 36 34 33 31 29 28 26 25
190 186 181 176 171 169 169 170 171 173 178 183 187 189 190 192 192 192 192 192 191 193 194 194 195 196 194 192 194 195 196 198 188 166 152 149 160 169 167 161 157 155 157 162 170 173 170 164 152 139 129 116 102 95 91 88 85 80 81 87 84 76 69 65 61 59 58 57 55 55 54 51 47 44 41 39 37 36 34 31 30 28 26 25 24
195 192 188 183 179 177 176 175 174 174 178 183 189 192 194 195 193 192 194 196 198 197 196 197 198 197 195 195 198 198 198 203 192 175 168 161 163 173 174 167 164 163 166 171 174 176 176 174 163 145 132 116 103 96 92 90 90 86 84 87 83 75 67 62 59 56 54 53 52 52 54 51 46 43 40 38 36 35 33 31 29 27 25 23 23
203 204 200 195 193 190 186 184 182 180 181 186 192 196 198 201 199 195 193 197 201 203 201 199 196 195 195 196 198 199 197 203 199 181 178 174 168 174 179 173 170 172 175 176 174 176 183 185 172 152 135 113 101 100 97 96 98 92 85 86 82 74 66 60 57 53 49 46 44 46 50 50 45 42 38 35 34 32 31 29 27 25 24 22 21
212 213 211 208 206 203 198 196 193 191 189 190 195 199 202 203 204 201 198 197 198 202 204 201 196 192 192 192 192 193 193 198 203 192 185 184 176 177 182 178 175 180 182 180 178 182 190 193 183 166 141 106 104 108 105 104 106 98 87 85 82 75 67 59 55 51 43 38 35 36 41 45 43 39 35 32 30 28 27 25 24 23 22 21 19
216 219 219 218 215 212 209 206 204 203 200 198 198 201 204 204 204 204 203 202 197 197 201 200 197 192 192 194 191 189 190 192 200 199 191 190 185 182 184 182 180 182 185 184 185 191 197 200 194 181 148 104 106 113 113 113 110 99 89 87 84 76 65 56 51 48 39 30 27 27 30 34 37 34 30 27 24 23 22 21 20 19 18 18 17
217 222 224 224 221 218 216 213 211 211 208 204 202 202 204 203 203 204 203 202 197 193 194 194 193 192 194 199 195 191 190 189 196 201 196 194 193 189 187 186 183 184 187 189 192 198 202 205 204 197 160 102 105 110 113 113 105 94 86 84 82 74 63 51 44 42 34 22 19 19 19 22 27 28 24 21 18 16 16 16 16 16 15 14 14
215 220 223 224 222 221 221 218 216 215 214 210 205 202 202 200 200 201 197 195 193 187 185 186 186 186 186 191 197 198 195 191 194 200 199 198 200 196 191 189 188 187 191 195 198 202 205 208 210 210 204 106 105 106 107 109 98 75 48 45 66 65 56 43 36 34 25 13 10 11 10 11 16 20 19 16 13 12 11 12 13 13 13 12 11
215 219 221 223 222 221 223 222 220 218 216 213 208 203 200 197 196 196 191 186 183 176 173 176 178 177 176 177 185 194 197 194 194 197 199 201 206 204 196 193 193 193 195 200 205 207 210 212 214 219 229 236 68 63 63 59 48 32 9 359 27 49 44 28 24 24 15 5 1 1 3 4 7 14 16 13 10 8 7 8 9 9 9 8 8
218 222 224 224 223 222 223 224 222 219 216 214 210 202 197 196 194 191 186 181 175 167 164 167 169 170 170 171 176 181 187 191 193 195 198 202 210 214 206 200 199 198 200 206 211 215 216 216 218 224 234 251 291 320 332 341 0 9 6 7 16 23 23 12 11 14 6 358 355 356 358 0 4 13 16 12 8 5 4 4 5 5 4 4 5
219 223 227 228 226 224 224 225 223 220 216 211 205 199 197 197 194 190 185 180 173 166 162 161 163 166 169 173 178 180 181 184 186 191 197 202 213 222 218 213 208 204 205 210 217 223 226 225 225 231 240 253 270 292 313 328 343 354 3 13 15 10 6 5 6 5 359 354 352 352 355 358 4 12 14 10 5 1 359 359 360 359 359 359 360
216 221 226 228 228 227 226 226 224 220 214 206 200 197 197 198 196 191 185 182 177 171 167 164 165 169 174 178 183 185 187 188 187 190 194 198 208 222 228 227 223 217 214 216 220 228 233 235 236 241 248 255 264 277 293 311 327 339 352 7 9 1 357 1 4 356 349 347 346 347 350 354 1 7 9 6 1 356 353 354 355 355 355 355 355
215 219 223 223 225 227 227 225 223 218 209 201 198 198 197 196 196 193 188 185 182 178 175 173 171 174 179 183 187 192 195 198 198 199 199 193 195 211 226 233 233 230 227 226 228 234 241 245 248 251 257 261 265 272 284 297 309 319 331 343 349 344 342 347 351 345 337 336 338 342 347 351 355 0 2 1 357 351 349 350 352 353 353 353 352
215 218 221 220 220 222 224 222 218 213 206 201 199 199 198 196 194 193 190 188 187 186 184 182 180 181 183 185 187 191 195 202 207 210 213 212 209 217 230 243 245 240 237 235 236 240 247 253 257 260 264 267 269 274 283 294 302 308 317 327 333 333 330 332 339 338 332 333 337 340 343 345 349 354 356 356 353 348 347 348 350 351 352 351 350
215 217 219 219 218 218 219 218 215 211 207 203 202 201 200 199 196 193 192 191 192 193 192 192 192 192 193 192 190 190 193 199 205 212 218 223 227 231 237 243 249 256 258 254 251 251 254 259 263 267 269 270 271 274 280 290 299 303 308 316 321 324 324 326 334 337 333 332 336 336 337 340 344 348 351 352 350 347 346 347 348 349 349 349 348
214 214 216 218 218 217 217 216 214 210 208 206 205 205 204 203 201 198 195 194 195 196 198 200 202 204 206 207 206 204 203 203 205 211 217 225 231 238 243 244 244 249 257 263 265 265 267 269 271 272 273 273 274 275 276 282 293 301 305 308 312 316 321 324 330 335 334 332 333 333 333 336 339 342 345 346 346 344 344 344 345 346 346 346 346
215 213 213 215 217 217 217 216 214 211 210 208 208 208 208 207 206 204 201 200 200 201 203 205 208 211 214 218 221 221 221 221 220 221 225 230 236 241 247 249 249 249 252 257 260 263 268 272 275 276 275 274 275 276 276 279 287 295 300 303 305 308 313 319 323 328 330 329 329 329 330 331 333 336 339 341 341 340 339 340 341 342 343 344 343
216 213 211 212 215 217 217 216 215 214 211 210 210 210 210 210 210 209 208 207 207 208 209 212 215 219 221 224 229 232 233 234 237 240 242 243 244 247 250 252 254 255 258 261 263 265 268 271 273 274 274 273 275 277 277 278 283 288 293 297 298 300 304 309 314 318 320 321 320 320 321 323 326 329 332 335 336 335 336 337 338 339 340 340 341
219 216 213 212 214 216 217 216 216 215 213 211 212 212 212 213 213 214 214 213 213 214 215 218 221 225 228 232 237 243 246 246 246 249 251 251 252 254 255 258 259 261 263 266 269 272 273 273 274 275 275 274 275 277 277 278 281 285 289 292 293 295 297 301 304 308 310 312 313 313 313 315 319 322 325 328 331 332 333 335 335 336 336 337 338
223 220 217 215 214 216 217 216 216 215 213 213 213 214 214 215 215 216 217 217 217 217 219 221 225 229 232 236 241 247 254 256 252 251 254 256 258 260 261 262 262 263 265 267 271 273 275 276 277 279 280 280 279 280 278 277 279 281 284 287 290 291 293 296 300 302 303 305 307 308 308 310 312 314 317 321 326 328 329 330 331 332 333 334 335
227 225 222 218 216 217 218 218 217 215 213 214 216 216 216 216 216 217 218 218 219 220 222 223 226 230 235 238 241 245 250 254 255 254 254 256 258 261 263 264 264 266 267 267 269 271 274 276 278 282 285 284 285 287 286 283 280 278 279 282 286 288 290 293 296 299 300 301 303 304 304 305 307 309 311 315 319 322 324 325 326 328 329 330 330
229 228 226 222 220 220 221 220 218 216 214 216 218 219 218 218 218 218 219 220 221 222 224 225 227 231 235 239 243 246 248 251 255 257 257 257 258 260 263 266 267 268 267 267 269 271 272 274 276 279 281 282 286 290 292 292 290 284 281 283 286 288 289 290 293 296 298 299 301 302 302 303 304 306 309 313 317 319 320 321 323 325 326 327 328
229 230 228 226 224 223 224 223 221 218 217 218 220 221 221 221 221 221 222 222 223 224 226 228 231 233 235 239 243 248 251 253 254 256 257 259 261 263 266 269 270 270 269 269 270 271 272 274 275 277 278 280 284 288 291 295 296 291 288 288 289 290 289 289 292 295 297 299 300 302 302 302 304 306 310 313 316 318 317 318 321 324 324 325 326
230 231 231 230 228 227 227 226 224 222 221 221 223 223 223 224 225 225 225 225 226 228 229 231 233 235 237 239 242 247 252 256 257 257 258 260 262 264 267 270 272 274 274 274 273 273 274 276 276 277 279 280 283 285 289 292 292 291 291 292 293 291 290 292 294 295 296 297 299 300 300 301 303 306 310 313 316 318 317 317 320 322 323 324 325
231 232 232 233 232 231 231 230 229 228 226 225 226 226 226 227 227 227 227 228 230 231 233 235 236 237 238 240 242 245 251 256 259 260 260 262 263 265 268 269 271 273 275 276 276 276 277 279 279 279 281 283 285 284 286 288 288 289 290 293 293 292 294 298 299 297 297 298 297 297 298 299 301 305 309 313 316 317 316 317 319 321 322 324 325
230 231 232 232 233 233 233 233 233 232 231 231 231 230 229 229 230 231 230 230 232 234 236 238 239 240 242 242 243 245 249 254 259 261 262 263 265 267 268 269 271 271 273 274 276 278 280 281 282 283 283 285 286 286 286 287 288 289 290 292 292 293 297 302 301 299 299 298 295 296 299 300 300 304 309 312 313 314 315 317 319 320 323 325 328
230 230 230 230 231 231 232 233 234 235 236 236 236 234 233 233 234 234 233 233 234 235 237 240 242 243 245 246 247 247 249 253 257 261 263 264 265 266 268 270 272 273 273 273 274 277 279 281 283 285 285 285 286 286 287 288 289 290 291 292 292 294 298 302 300 298 298 296 295 300 304 302 301 304 308 309 311 313 314 316 318 321 325 329 332
230 231 232 232 232 232 231 231 233 235 238 240 241 240 239 238 238 237 237 237 237 237 239 241 244 246 247 249 250 251 252 253 255 259 262 265 266 267 268 270 272 274 275 275 276 278 280 281 283 283 284 284 284 285 286 288 289 290 291 292 292 294 298 299 297 294 293 293 296 302 305 302 301 304 307 309 311 313 314 316 320 325 330 333 336
230 231 233 235 236 236 235 234 233 235 238 242 244 245 244 243 241 239 239 240 239 239 240 242 244 246 248 250 251 253 254 256 256 257 260 263 266 267 269 270 273 275 275 276 278 280 282 283 283 283 282 283 284 285 286 288 289 291 292 292 292 293 296 295 292 289 289 291 296 300 301 299 301 305 308 309 311 312 314 318 323 328 333 336 338
Height
5937 5937 5937 5937 5938 5938 5939 5939 5939 5940 5940 5941 5941 5942 5943 5944 5944 5944 5945 5946 5946 5947 5947 5947 5948 5949 5949 5949 5950 5950 5950 5951 5951 5952 5952 5952 5953 5953 5954 5954 5955 5955 5955 5955 5955 5955 5956 5956 5956 5956 5956 5957 5957 5957 5957 5957 5957 5957 5957 5957 5957 5956 5956 5956 5956 5955 5954 5953 5952 5951 5950 5949 5948 5947 5946 5945 5944 5943 5942 5940 5939 5938 5936 5935 5933
5938 5938 5938 5938 5939 5940 5940 5941 5942 5942 5942 5943 5943 5944 5945 5945 5945 5946 5946 5947 5947 5948 5949 5949 5949 5950 5951 5951 5951 5952 5952 5952 5953 5953 5953 5954 5954 5955 5955 5956 5956 5956 5956 5957 5957 5957 5957 5957 5957 5958 5958 5958 5959 5959 5959 5959 5959 5959 5959 5958 5958 5958 5958 5958 5957 5956 5955 5954 5953 5952 5951 5950 5949 5948 5947 5946 5945 5944 5943 5941 5940 5938 5937 5935 5934
5940 5940 5940 5940 5941 5941 5942 5943 5943 5944 5944 5945 5945 5946 5946 5947 5947 5947 5948 5948 5949 5949 5950 5950 5951 5951 5952 5952 5953 5953 5953 5953 5954 5954 5955 5955 5956 5957 5957 5957 5958 5958 5958 5958 5958 5959 5959 5959 5959 5960 5960 5960 5960 5960 5960 5960 5960 5960 5960 5960 5960 5960 5960 5959 5958 5957 5956 5955 5954 5953 5952 5951 5950 5950 5949 5948 5946 5945 5944 5942 5941 5939 5938 5936 5934
5941 5942 5942 5942 5943 5943 5944 5945 5945 5946 5946 5946 5947 5947 5948 5948 5949 5949 5949 5950 5950 5951 5951 5952 5952 5953 5953 5954 5954 5954 5955 5955 5955 5956 5956 5957 5957 5958 5958 5959 5959 5959 5959 5960 5960 5960 5961 5961 5961 5961 5962 5962 5962 5962 5962 5962 5962 5962 5962 5962 5962 5961 5961 5960 5959 5958 5957 5956 5956 5955 5954 5953 5952 5951 5950 5949 5948 5946 5945 5943 5941 5940 5938 5937 5935
5943 5943 5944 5944 5944 5945 5946 5946 5947 5947 5948 5948 5948 5949 5949 5950 5950 5950 5951 5952 5952 5952 5953 5953 5954 5954 5954 5955 5955 5956 5956 5957 5957 5958 5958 5958 5959 5959 5960 5960 5960 5961 5961 5961 5962 5962 5962 5963 5963 5963 5963 5963 5963 5963 5964 5964 5964 5963 5963 5963 5963 5963 5962 5961 5960 5960 5959 5958 5957 5956 5955 5954 5953 5952 5951 5950 5949 5947 5946 5944 5942 5941 5939 5938 5936
5944 5945 5945 5946 5946 5947 5947 5948 5948 5949 5949 5950 5950 5950 5950 5951 5951 5952 5953 5953 5954 5954 5954 5955 5955 5956 5956 5957 5957 5958 5958 5958 5959 5959 5960 5960 5960 5961 5961 5962 5962 5962 5963 5963 5963 5964 5964 5964 5964 5964 5964 5965 5965 5965 5965 5965 5965 5965 5965 5965 5964 5964 5963 5963 5962 5961 5960 5959 5958 5958 5957 5956 5955 5954 5953 5951 5950 5948 5947 5945 5943 5942 5940 5938 5936
5946 5947 5947 5947 5948 5948 5949 5949 5950 5950 5951 5951 5951 5952 5952 5952 5953 5953 5954 5955 5955 5956 5956 5957 5957 5957 5958 5958 5959 5959 5960 5960 5960 5961 5961 5962 5962 5962 5963 5963 5964 5964 5965 5965 5965 5965 5965 5966 5966 5966 5966 5966 5967 5967 5967 5967 5967 5967 5966 5966 5966 5965 5965 5964 5963 5962 5962 5961 5960 5959 5958 5957 5956 5955 5954 5952 5951 5949 5947 5946 5944 5942 5940 5938 5937
5948 5948 5949 5949 5949 5950 5950 5951 5951 5952 5952 5953 5953 5953 5954 5954 5955 5955 5956 5956 5957 5957 5957 5958 5958 5959 5959 5959 5960 5960 5961 5961 5962 5962 5963 5964 5964 5964 5965 5965 5965 5966 5966 5967 5967 5967 5967 5967 5967 5967 5968 5968 5968 5968 5968 5968 5968 5968 5968 5968 5967 5967 5966 5965 5965 5964 5963 5963 5962 5961 5960 5959 5958 5956 5955 5953 5951 5950 5948 5946 5945 5943 5941 5939 5937
5949 5950 5950 5950 5951 5951 5952 5952 5953 5953 5954 5954 5955 5955 5956 5956 5956 5957 5957 5957 5958 5958 5959 5959 5959 5960 5960 5960 5961 5961 5962 5962 5963 5963 5964 5965 5966 5966 5966 5967 5967 5967 5968 5968 5968 5968 5968 5968 5969 5969 5969 5969 5969 5970 5970 5970 5970 5970 5970 5969 5969 5968 5968 5967 5966 5966 5965 5964 5963 5962 5961 5960 5959 5957 5956 5954 5952 5951 5949 5947 5946 5944 5942 5940 5938
5951 5951 5952 5952 5952 5952 5953 5953 5954 5955 5955 5956 5956 5957 5957 5958 5958 5958 5959 5959 5959 5960 5960 5960 5961 5961 5961 5961 5962 5962 5963 5963 5964 5964 5965 5966 5967 5967 5967 5968 5968 5968 5969 5969 5969 5970 5970 5970 5970 5970 5971 5971 5971 5971 5972 5972 5972 5972 5971 5971 5970 5970 5969 5968 5968 5967 5966 5966 5965 5963 5962 5961 5960 5958 5957 5955 5953 5952 5950 5949 5947 5945 5943 5941 5939
5952 5953 5953 5953 5953 5954 5954 5955 5955 5956 5956 5957 5958 5958 5958 5959 5959 5960 5960 5960 5961 5961 5962 5962 5962 5962 5962 5963 5963 5964 5964 5964 5965 5965 5966 5967 5967 5968 5968 5969 5969 5970 5970 5971 5971 5971 5971 5972 5972 5972 5972 5972 5973 5973 5973 5974 5973 5973 5973 5972 5972 5971 5970 5970 5969 5969 5968 5967 5966 5965 5963 5962 5961 5959 5958 5956 5955 5953 5952 5950 5948 5946 5944 5942 5940
5954 5954 5954 5954 5954 5955 5955 5956 5956 5957 5958 5958 5959 5959 5959 5960 5961 5961 5961 5962 5962 5963 5963 5963 5963 5964 5964 5964 5965 5965 5966 5966 5966 5966 5967 5968 5968 5969 5969 5970 5970 5971 5972 5972 5973 5973 5973 5973 5974 5974 5974 5974 5975 5975 5975 5975 5975 5974 5974 5973 5973 5972 5972 5971 5971 5970 5969 5968 5967 5966 5965 5963 5962 5961 5959 5958 5956 5955 5953 5951 5949 5947 5945 5943 5941
5955 5955 5956 5956 5956 5956 5956 5957 5958 5958 5959 5959 5960 5960 5961 5961 5962 5962 5962 5963 5963 5964 5965 5965 5965 5965 5965 5966 5966 5967 5967 5967 5968 5968 5968 5968 5969 5970 5971 5971 5972 5973 5973 5974 5974 5975 5975 5975 5975 5976 5976 5976 5976 5977 5977 5976 5976 5976 5975 5975 5974 5974 5973 5973 5972 5971 5970 5969 5968 5967 5966 5965 5963 5962 5961 5959 5958 5956 5954 5952 5950 5948 5946 5944 5942
5956 5957 5957 5957 5957 5958 5958 5958 5959 5959 5960 5961 5961 5962 5962 5963 5963 5963 5964 5964 5965 5966 5966 5967 5967 5967 5967 5968 5968 5968 5969 5969 5969 5969 5969 5969 5970 5971 5972 5973 5973 5974 5975 5975 5976 5976 5976 5977 5977 5977 5977 5978 5978 5978 5978 5978 5977 5977 5976 5976 5976 5975 5975 5974 5973 5973 5972 5971 5970 5969 5967 5966 5965 5963 5962 5961 5959 5957 5955 5953 5951 5949 5947 5945 5943
5957 5958 5958 5959 5959 5959 5959 5960 5960 5961 5961 5962 5962 5963 5964 5964 5965 5965 5965 5966 5967 5967 5968 5968 5968 5968 5969 5969 5969 5970 5970 5970 5971 5971 5971 5971 5971 5972 5973 5974 5974 5975 5976 5977 5977 5977 5978 5978 5978 5978 5979 5979 5979 5979 5979 5979 5978 5978 5978 5977 5977 5977 5976 5975 5975 5974 5973 5972 5971 5970 5968 5967 5966 5965 5963 5962 5960 5958 5956 5954 5952 5950 5949 5947 5944
5958 5958 5959 5960 5960 5961 5961 5961 5962 5962 5963 5963 5964 5964 5965 5965 5966 5966 5966 5967 5968 5969 5969 5970 5970 5970 5970 5971 5971 5971 5971 5972 5972 5973 5973 5973 5973 5973 5974 5974 5975 5976 5977 5978 5978 5979 5979 5979 5979 5980 5980 5980 5980 5980 5980 5980 5979 5979 5979 5979 5978 5978 5977 5977 5976 5975 5974 5973 5972 5971 5969 5968 5967 5966 5964 5963 5962 5960 5958 5956 5954 5952 5950 5948 5945
5959 5959 5960 5961 5961 5962 5962 5963 5963 5963 5964 5964 5965 5965 5966 5966 5967 5967 5968 5968 5969 5970 5970 5971 5971 5971 5972 5972 5972 5972 5973 5973 5973 5974 5974 5974 5974 5975 5975 5976 5976 5977 5978 5978 5979 5979 5980 5980 5980 5981 5981 5981 5981 5981 5981 5981 5981 5980 5980 5980 5980 5979 5979 5978 5977 5977 5976 5974 5973 5972 5971 5970 5968 5967 5966 5964 5963 5961 5959 5957 5955 5953 5951 5949 5946
5959 5960 5960 5961 5962 5963 5963 5964 5964 5964 5965 5965 5966 5966 5967 5967 5967 5968 5969 5969 5970 5971 5971 5972 5972 5973 5973 5973 5973 5973 5974 5974 5974 5975 5975 5976 5976 5976 5977 5977 5978 5978 5979 5979 5980 5980 5980 5981 5981 5982 5982 5982 5982 5982 5982 5982 5982 5981 5981 5981 5981 5980 5980 5979 5979 5978 5976 5975 5974 5973 5972 5971 5969 5968 5967 5966 5964 5962 5960 5958 5956 5954 5952 5950 5947
5959 5960 5961 5961 5962 5963 5964 5964 5965 5965 5965 5966 5966 5967 5967 5968 5968 5969 5969 5970 5971 5971 5972 5972 5973 5973 5974 5974 5974 5974 5975 5975 5976 5976 5976 5977 5977 5977 5978 5978 5979 5979 5980 5980 5980 5980 5981 5981 5982 5982 5983 5983 5983 5983 5983 5983 5982 5982 5982 5982 5982 5981 5981 5980 5980 5979 5977 5976 5975 5974 5973 5972 5970 5969 5968 5967 5965 5963 5961 5959 5957 5955 5953 5950 5948
5960 5960 5961 5961 5962 5963 5964 5965 5965 5965 5966 5966 5967 5967 5968 5968 5969 5969 5970 5970 5971 5972 5972 5973 5973 5974 5974 5975 5975 5975 5976 5976 5976 5976 5977 5977 5978 5978 5979 5979 5979 5980 5980 5980 5981 5981 5981 5982 5983 5983 5983 5984 5984 5984 5984 5984 5983 5983 5983 5983 5983 5982 5982 5981 5981 5979 5978 5977 5976 5975 5974 5973 5972 5971 5969 5968 5966 5964 5962 5960 5958 5956 5954 5951 5949
5960 5960 5961 5961 5962 5963 5964 5964 5965 5966 5966 5966 5967 5967 5968 5968 5969 5969 5970 5970 5971 5972 5972 5973 5974 5974 5975 5975 5975 5976 5976 5976 5977 5977 5977 5978 5979 5979 5979 5980 5980 5980 5981 5981 5981 5982 5982 5983 5983 5984 5984 5984 5984 5984 5984 5984 5984 5984 5984 5984 5984 5983 5983 5982 5981 5980 5979 5978 5977 5976 5975 5974 5973 5972 5971 5969 5967 5965 5963 5961 5959 5957 5955 5953 5950
5960 5960 5960 5961 5962 5963 5963 5964 5965 5965 5966 5966 5967 5967 5968 5968 5969 5969 5970 5970 5971 5971 5972 5973 5974 5974 5975 5975 5976 5976 5976 5977 5977 5977 5978 5978 5979 5980 5980 5980 5981 5981 5981 5982 5982 5983 5983 5984 5984 5985 5985 5985 5985 5985 5985 5985 5985 5985 5985 5985 5984 5984 5983 5983 5982 5980 5980 5979 5978 5977 5976 5975 5974 5973 5971 5970 5968 5966 5964 5962 5960 5958 5956 5954 5951
5960 5960 5960 5961 5962 5962 5963 5964 5965 5965 5966 5966 5967 5967 5968 5968 5969 5969 5970 5970 5971 5971 5972 5973 5974 5974 5975 5975 5976 5976 5976 5977 5977 5978 5978 5979 5980 5981 5981 5981 5981 5982 5982 5982 5983 5983 5984 5984 5985 5986 5986 5985 5985 5985 5985 5985 5985 5985 5986 5986 5985 5984 5984 5983 5982 5981 5981 5980 5979 5978 5977 5976 5975 5973 5972 5970 5969 5967 5965 5963 5961 5960 5958 5955 5953
5961 5961 5961 5961 5962 5962 5963 5964 5964 5965 5965 5966 5966 5967 5967 5968 5968 5969 5969 5970 5971 5971 5972 5973 5974 5974 5975 5975 5976 5976 5977 5977 5978 5978 5978 5979 5980 5981 5981 5981 5982 5982 5982 5983 5983 5984 5984 5985 5985 5985 5985 5985 5986 5986 5986 5986 5986 5986 5986 5986 5985 5984 5984 5983 5983 5982 5981 5981 5980 5979 5978 5977 5975 5974 5973 5971 5969 5968 5966 5964 5962 5961 5959 5956 5953
5962 5962 5962 5962 5962 5962 5963 5964 5964 5965 5965 5966 5966 5966 5967 5968 5968 5968 5969 5970 5971 5971 5972 5973 5974 5974 5975 5975 5976 5977 5977 5978 5978 5978 5978 5979 5980 5981 5982 5982 5982 5982 5982 5983 5983 5984 5985 5985 5985 5985 5985 5986 5986 5986 5986 5986 5986 5986 5986 5986 5985 5984 5984 5984 5983 5983 5982 5981 5981 5980 5978 5977 5976 5974 5973 5972 5970 5968 5967 5965 5963 5961 5959 5957 5955
5962 5963 5963 5963 5963 5963 5963 5964 5964 5965 5965 5965 5966 5966 5967 5967 5968 5968 5969 5969 5970 5971 5972 5973 5974 5974 5975 5975 5976 5977 5977 5978 5978 5978 5978 5979 5980 5981 5982 5982 5982 5982 5982 5983 5983 5984 5985 5985 5985 5985 5985 5986 5986 5986 5986 5986 5986 5986 5987 5986 5985 5985 5984 5984 5984 5983 5983 5982 5981 5980 5979 5977 5976 5975 5974 5972 5971 5969 5967 5966 5964 5962 5960 5958 5955
5962 5963 5963 5963 5963 5963 5963 5964 5964 5965 5965 5965 5966 5966 5966 5967 5967 5968 5968 5969 5970 5971 5972 5973 5973 5974 5975 5975 5976 5977 5977 5977 5978 5978 5978 5979 5980 5981 5981 5982 5982 5982 5982 5983 5983 5984 5984 5985 5985 5985 5986 5986 5986 5986 5986 5987 5987 5986 5987 5986 5985 5985 5985 5985 5984 5984 5983 5982 5982 5981 5979 5978 5976 5975 5974 5972 5971 5969 5968 5966 5964 5962 5960 5958 5956
5961 5962 5962 5963 5963 5963 5963 5963 5964 5964 5965 5965 5965 5966 5966 5967 5967 5967 5968 5968 5969 5970 5971 5972 5973 5974 5974 5975 5976 5976 5976 5977 5977 5978 5978 5979 5980 5980 5981 5981 5982 5982 5983 5983 5983 5984 5984 5985 5985 5986 5986 5986 5986 5987 5987 5987 5987 5986 5987 5986 5985 5985 5985 5985 5984 5984 5983 5983 5982 5981 5979 5978 5976 5975 5974 5972 5971 5970 5968 5966 5965 5963 5960 5958 5956
5960 5961 5962 5962 5962 5963 5963 5963 5963 5964 5965 5965 5965 5966 5966 5966 5967 5967 5968 5968 5969 5970 5970 5971 5972 5973 5974 5975 5975 5976 5976 5976 5977 5978 5978 5979 5980 5980 5981 5981 5981 5982 5982 5983 5983 5984 5984 5985 5985 5986 5986 5987 5987 5987 5987 5987 5987 5987 5987 5986 5986 5985 5985 5985 5985 5984 5983 5982 5982 5980 5979 5978 5976 5975 5974 5972 5971 5969 5968 5966 5964 5962 5960 5958 5956
5959 5960 5961 5961 5962 5962 5962 5963 5963 5963 5964 5965 5965 5965 5966 5966 5967 5967 5967 5968 5969 5969 5970 5971 5972 5973 5974 5974 5975 5976 5976 5976 5977 5977 5978 5979 5980 5980 5981 5981 5981 5981 5982 5983 5983 5984 5985 5985 5985 5986 5986 5987 5987 5987 5987 5987 5987 5987 5987 5986 5986 5985 5985 5985 5984 5984 5983 5982 5981 5980 5979 5977 5976 5975 5973 5972 5970 5969 5967 5966 5964 5962 5960 5958 5956
5958 5959 5959 5960 5960 5961 5962 5962 5963 5963 5963 5964 5965 5965 5966 5966 5966 5967 5967 5968 5968 5969 5970 5971 5972 5972 5973 5974 5974 5975 5976 5976 5977 5977 5978 5979 5980 5980 5980 5981 5981 5981 5982 5982 5983 5984 5985 5985 5985 5986 5986 5987 5987 5987 5987 5987 5987 5987 5987 5986 5985 5985 5985 5984 5984 5984 5983 5982 5981 5980 5978 5977 5976 5974 5973 5971 5970 5968 5967 5965 5963 5961 5959 5957 5955
5957 5958 5959 5959 5959 5960 5961 5961 5962 5963 5963 5964 5965 5965 5966 5966 5966 5967 5967 5968 5968 5969 5970 5970 5971 5972 5972 5973 5974 5975 5975 5976 5977 5977 5978 5979 5980 5980 5980 5980 5981 5981 5981 5982 5983 5984 5984 5984 5985 5985 5986 5986 5986 5986 5986 5986 5986 5986 5986 5985 5984 5984 5984 5984 5984 5983 5982 5981 5981 5980 5978 5976 5975 5973 5972 5970 5969 5968 5967 5965 5963 5961 5959 5957 5955
5956 5957 5957 5958 5959 5959 5960 5960 5961 5962 5963 5964 5964 5965 5966 5966 5967 5967 5967 5968 5968 5969 5969 5970 5971 5971 5972 5972 5973 5974 5975 5976 5977 5977 5978 5979 5979 5980 5980 5980 5980 5981 5981 5982 5982 5983 5983 5983 5984 5984 5985 5985 5985 5986 5985 5985 5985 5985 5985 5984 5984 5983 5983 5983 5983 5982 5981 5981 5980 5979 5978 5976 5974 5972 5970 5969 5969 5967 5966 5964 5962 5960 5958 5956 5954
5955 5956 5956 5957 5958 5958 5959 5960 5961 5962 5962 5963 5964 5965 5966 5967 5967 5967 5968 5968 5968 5969 5969 5970 5970 5971 5971 5971 5972 5973 5974 5975 5976 5977 5978 5978 5979 5979 5980 5980 5980 5981 5981 5981 5981 5982 5982 5982 5983 5983 5984 5984 5984 5984 5984 5984 5984 5984 5984 5984 5983 5983 5983 5983 5982 5981 5981 5980 5979 5978 5977 5975 5973 5971 5970 5968 5968 5966 5965 5963 5961 5959 5957 5955 5953
5954 5954 5955 5956 5957 5957 5958 5959 5960 5961 5962 5963 5964 5965 5966 5966 5967 5968 5968 5968 5969 5969 5969 5970 5970 5970 5971 5971 5972 5973 5974 5975 5976 5977 5978 5978 5978 5979 5979 5980 5980 5980 5980 5980 5980 5980 5981 5981 5981 5982 5982 5982 5982 5982 5982 5982 5983 5983 5983 5983 5983 5982 5982 5982 5981 5981 5980 5979 5978 5977 5975 5974 5972 5970 5969 5968 5966 5965 5964 5962 5960 5958 5956 5954 5952
5952 5953 5954 5955 5956 5956 5957 5958 5959 5960 5961 5962 5963 5964 5965 5966 5967 5968 5968 5969 5969 5969 5969 5970 5970 5970 5971 5971 5972 5972 5973 5974 5975 5976 5977 5977 5978 5978 5979 5979 5980 5980 5980 5980 5980 5980 5979 5980 5980 5981 5981 5981 5981 5981 5981 5981 5981 5981 5981 5981 5981 5981 5981 5980 5980 5980 5979 5978 5977 5976 5974 5972 5971 5970 5968 5967 5965 5964 5963 5961 5959 5958 5956 5954 5951
5950 5951 5952 5953 5954 5955 5956 5957 5958 5959 5961 5962 5962 5963 5964 5965 5966 5967 5968 5968 5969 5969 5969 5969 5970 5970 5971 5971 5972 5973 5973 5974 5975 5975 5976 5976 5977 5977 5978 5979 5979 5979 5979 5979 5979 5979 5979 5979 5979 5980 5980 5980 5980 5980 5980 5980 5980 5980 5980 5980 5980 5980 5979 5979 5979 5979 5977 5976 5976 5975 5973 5972 5970 5969 5967 5966 5964 5963 5962 5960 5958 5957 5955 5953 5951
5948 5949 5951 5952 5953 5954 5954 5956 5957 5958 5960 5961 5962 5963 5963 5964 5965 5966 5967 5967 5968 5968 5969 5969 5970 5970 5971 5971 5972 5973 5973 5974 5974 5975 5975 5975 5976 5976 5977 5977 5978 5979 5979 5979 5979 5978 5978 5978 5978 5978 5978 5978 5978 5978 5979 5978 5978 5978 5978 5978 5978 5978 5978 5978 5977 5977 5976 5975 5974 5973 5972 5971 5969 5968 5966 5965 5963 5962 5961 5959 5957 5956 5954 5952 5950
5946 5948 5949 5950 5951 5952 5953 5954 5956 5957 5959 5960 5961 5962 5963 5964 5964 5965 5965 5966 5967 5968 5968 5969 5969 5970 5970 5971 5972 5973 5973 5974 5974 5974 5975 5975 5975 5975 5975 5976 5976 5977 5977 5978 5978 5978 5977 5977 5977 5977 5977 5977 5977 5977 5977 5977 5976 5976 5976 5976 5976 5976 5976 5976 5976 5975 5975 5974 5973 5972 5971 5969 5968 5966 5965 5964 5962 5961 5960 5958 5956 5955 5953 5951 5949
5944 5945 5947 5948 5948 5950 5951 5953 5954 5956 5958 5959 5960 5961 5962 5963 5964 5964 5964 5965 5966 5966 5967 5968 5969 5969 5970 5971 5972 5972 5973 5973 5974 5974 5974 5974 5974 5974 5974 5974 5975 5975 5976 5976 5976 5976 5976 5976 5976 5976 5976 5976 5976 5976 5976 5975 5975 5975 5975 5974 5974 5974 5974 5974 5973 5973 5973 5972 5971 5970 5969 5968 5967 5965 5964 5963 5962 5960 5959 5957 5955 5954 5952 5950 5948
5942 5943 5944 5945 5946 5947 5949 5951 5952 5954 5956 5958 5959 5960 5961 5962 5962 5963 5963 5964 5965 5965 5966 5967 5967 5968 5969 5970 5971 5971 5972 5972 5973 5973 5973 5973 5973 5973 5973 5973 5974 5974 5974 5975 5975 5975 5975 5975 5975 5975 5975 5975 5974 5974 5974 5974 5973 5973 5973 5972 5971 5971 5971 5971 5971 5971 5970 5970 5969 5968 5967 5966 5965 5964 5963 5962 5961 5959 5958 5956 5954 5952 5950 5949 5947
5940 5941 5942 5943 5944 5946 5947 5948 5950 5952 5954 5956 5957 5958 5959 5960 5960 5961 5962 5963 5963 5964 5965 5965 5966 5967 5967 5968 5969 5970 5970 5971 5971 5972 5972 5972 5971 5971 5971 5972 5972 5973 5973 5973 5973 5973 5973 5973 5973 5973 5973 5973 5973 5972 5972 5972 5972 5971 5971 5970 5969 5968 5968 5968 5968 5968 5968 5967 5967 5966 5965 5964 5963 5963 5962 5961 5960 5958 5957 5955 5953 5951 5949 5947 5945
5938 5939 5940 5941 5943 5943 5945 5946 5948 5950 5952 5953 5954 5955 5956 5957 5958 5960 5960 5961 5962 5963 5963 5964 5964 5965 5966 5967 5968 5969 5969 5969 5970 5970 5970 5970 5970 5970 5970 5970 5971 5971 5972 5972 5972 5971 5971 5971 5971 5971 5971 5971 5970 5970 5970 5970 5970 5969 5969 5968 5967 5966 5966 5965 5965 5965 5965 5965 5964 5964 5963 5961 5961 5960 5959 5959 5958 5956 5955 5953 5952 5950 5948 5946 5944
5935 5937 5938 5940 5941 5942 5943 5944 5945 5947 5949 5950 5951 5952 5953 5955 5956 5957 5958 5959 5960 5961 5962 5962 5962 5963 5964 5965 5966 5967 5967 5968 5968 5968 5968 5968 5968 5968 5968 5968 5969 5970 5970 5970 5970 5970 5969 5969 5969 5969 5969 5968 5968 5968 5968 5968 5967 5967 5966 5966 5965 5965 5964 5963 5963 5963 5962 5962 5961 5961 5960 5959 5958 5957 5956 5956 5955 5954 5952 5951 5950 5948 5946 5944 5942
5932 5934 5936 5938 5939 5940 5941 5942 5944 5945 5946 5946 5947 5949 5950 5952 5953 5954 5955 5957 5958 5959 5960 5960 5961 5961 5962 5963 5964 5965 5965 5965 5966 5966 5966 5966 5966 5966 5966 5966 5967 5968 5968 5968 5968 5967 5967 5967 5967 5967 5966 5966 5966 5965 5965 5966 5966 5965 5964 5964 5963 5963 5962 5961 5961 5960 5960 5959 5959 5958 5958 5956 5955 5954 5953 5953 5952 5951 5950 5948 5947 5946 5945 5942 5940
5929 5932 5934 5936 5937 5939 5940 5941 5942 5943 5943 5944 5945 5946 5947 5948 5950 5951 5952 5954 5955 5956 5957 5958 5959 5959 5960 5960 5961 5962 5963 5963 5964 5964 5964 5964 5964 5964 5964 5964 5965 5965 5966 5966 5966 5965 5965 5965 5965 5965 5964 5964 5964 5963 5963 5963 5963 5963 5962 5962 5961 5961 5960 5959 5959 5958 5957 5957 5956 5956 5955 5954 5952 5951 5951 5950 5949 5949 5948 5946 5945 5944 5942 5940 5938
5927 5929 5931 5933 5936 5938 5939 5940 5941 5942 5942 5942 5942 5943 5944 5945 5946 5947 5949 5951 5952 5954 5955 5956 5956 5957 5957 5958 5959 5960 5960 5961 5961 5961 5961 5962 5962 5962 5963 5963 5963 5963 5964 5964 5963 5963 5963 5963 5963 5963 5962 5961 5961 5961 5961 5960 5960 5960 5960 5960 5959 5958 5957 5957 5956 5956 5955 5954 5954 5953 5952 5951 5950 5949 5948 5947 5947 5946 5945 5944 5943 5941 5940 5938 5936
5923 5925 5927 5930 5933 5935 5937 5939 5940 5941 5941 5940 5940 5941 5942 5942 5943 5944 5946 5948 5949 5951 5952 5953 5953 5954 5955 5955 5956 5957 5958 5958 5958 5958 5958 5959 5959 5960 5960 5960 5961 5962 5962 5962 5961 5961 5961 5961 5961 5961 5960 5959 5958 5958 5958 5958 5957 5957 5957 5957 5956 5955 5955 5955 5954 5953 5952 5952 5951 5950 5950 5949 5948 5947 5946 5945 5944 5943 5943 5941 5940 5939 5937 5935 5933
5919 5921 5923 5924 5927 5929 5932 5935 5938 5940 5940 5939 5939 5939 5939 5940 5940 5942 5943 5945 5946 5947 5949 5949 5950 5951 5952 5953 5953 5954 5955 5955 5955 5954 5954 5955 5957 5957 5958 5958 5958 5959 5959 5959 5959 5959 5959 5959 5959 5959 5958 5957 5956 5955 5955 5955 5954 5954 5954 5954 5953 5953 5953 5953 5951 5950 5950 5949 5948 5948 5948 5947 5945 5944 5944 5943 5942 5941 5940 5939 5938 5936 5934 5932 5930
5916 5918 5919 5921 5922 5925 5927 5930 5933 5935 5936 5937 5937 5938 5938 5938 5939 5940 5941 5942 5943 5945 5946 5946 5947 5948 5949 5949 5950 5951 5952 5952 5952 5951 5951 5952 5953 5954 5955 5955 5956 5957 5957 5956 5956 5957 5957 5957 5957 5956 5956 5954 5953 5953 5952 5952 5951 5951 5951 5951 5951 5950 5950 5950 5949 5948 5948 5947 5946 5945 5945 5944 5943 5942 5941 5940 5939 5938 5937 5936 5935 5934 5932 5929 5927
5912 5914 5916 5918 5920 5922 5924 5925 5927 5929 5931 5932 5934 5935 5936 5936 5937 5939 5939 5940 5941 5942 5943 5943 5944 5944 5945 5946 5946 5947 5948 5948 5948 5948 5948 5948 5950 5951 5951 5952 5953 5954 5953 5952 5953 5954 5955 5955 5954 5954 5953 5952 5951 5950 5950 5949 5949 5948 5948 5948 5948 5947 5947 5947 5946 5945 5945 5944 5943 5943 5942 5941 5940 5939 5938 5937 5937 5935 5934 5933 5932 5931 5929 5927 5925